Wind_Speed
59 59 60 56 62 57 58 61 59 62 61 62 62 65 60 60 60 63 64 60 63 65 70 76 80 84 82 77 77 75 69 72 69 74 71 60 62 68 68 64 60 60 65
74 72 73 71 70 69 63 60 59 64 63 66 66 64 68 67 66 72 77 77 74 74 74 80 84 87 89 94 87 84 87 87 77 76 77 74 72 75 76 73 68 71 70
81 84 84 83 82 71 68 71 72 72 72 72 72 77 77 76 74 71 78 81 80 78 86 84 86 94 91 94 90 96 94 89 78 79 86 80 84 79 80 84 73 72 69
75 75 79 85 85 90 93 91 85 79 77 74 78 79 80 87 77 72 77 81 83 84 87 92 95 100 101 103 102 105 101 94 93 93 95 96 89 89 88 85 82 77 75
78 79 81 82 82 86 94 96 94 92 92 89 86 84 85 86 84 87 89 87 94 100 100 100 103 103 102 104 107 107 101 103 94 97 103 103 96 94 95 89 88 88 85
80 82 84 84 86 87 88 88 90 97 106 110 111 111 106 95 101 97 97 98 101 100 99 103 107 108 107 107 106 106 108 104 101 102 103 101 99 94 101 98 94 96 96
82 83 84 85 87 90 93 94 93 94 95 97 97 97 101 106 106 104 108 110 110 106 104 105 109 112 115 119 119 119 119 120 118 115 108 109 104 108 104 105 99 106 104
80 81 84 88 91 92 90 92 94 94 95 97 101 102 100 101 113 114 118 117 116 118 122 120 120 124 128 129 127 124 123 124 122 120 117 121 120 118 115 118 114 112 120
69 71 75 81 85 89 91 92 93 94 95 97 98 100 105 109 109 112 117 124 127 130 130 131 134 132 134 139 135 134 136 135 137 137 140 141 136 136 134 131 137 133 136
50 54 58 61 66 71 76 80 88 97 97 97 101 103 104 106 107 113 121 123 125 128 132 137 142 146 147 149 154 151 150 146 146 146 151 153 151 151 147 150 154 155 150
45 52 53 52 53 54 56 59 64 70 78 88 95 98 99 98 103 107 112 115 120 123 127 132 137 139 142 147 153 155 158 150 148 158 146 143 145 140 131 124 122 124 123
45 44 43 44 42 44 46 49 51 54 57 60 63 66 68 71 75 80 85 89 94 99 103 107 112 117 120 125 126 121 113 105 99 92 88 90 92 91 90 88 88 90 89
39 41 42 42 42 41 41 42 45 48 52 53 51 49 49 51 55 58 61 63 65 67 70 70 71 73 75 75 73 69 67 65 62 61 61 58 57 58 58 60 63 64 65
36 37 37 38 39 40 42 43 42 37 34 32 33 33 32 32 33 35 37 39 41 43 45 45 46 47 50 50 50 51 48 43 41 39 40 39 38 37 39 42 45 49 52
33 33 32 32 32 32 29 24 23 24 24 23 22 23 24 25 27 30 33 37 39 41 44 45 46 44 43 42 40 38 38 39 38 38 36 36 36 36 37 40 43 48 51
23 21 19 17 14 14 15 17 18 20 23 23 25 28 30 32 34 36 38 41 43 45 45 44 45 46 45 45 44 43 40 37 37 40 42 42 41 41 41 42 44 48 53
13 11 11 14 14 13 13 16 18 19 21 24 29 33 36 41 45 47 48 49 49 48 48 49 48 48 47 47 49 49 50 50 48 46 44 46 50 50 49 50 49 47 48
13 14 15 16 13 13 15 16 19 23 26 30 34 37 40 43 46 46 47 49 50 49 50 50 50 51 51 49 49 49 50 51 51 54 58 59 58 55 53 55 57 56 55
14 15 15 14 14 15 17 21 25 28 32 36 39 40 40 39 42 46 49 60 64 60 56 56 57 56 56 53 54 52 51 51 49 35 82 86 69 64 64 60 60 61 61
15 16 15 14 15 17 21 25 29 34 36 41 43 46 47 49 49 39 42 66 73 73 72 70 63 65 64 62 61 60 58 56 59 42 66 83 74 70 70 68 69 67 65
16 18 17 16 18 23 26 29 33 38 44 47 48 48 51 54 54 52 36 46 64 57 68 75 70 70 68 67 64 65 70 70 69 70 73 77 77 74 73 73 73 73 69
17 20 20 20 24 26 30 32 37 41 44 47 50 53 55 60 63 62 62 61 63 63 62 72 72 69 70 69 70 73 74 74 74 73 73 72 72 69 65 65 67 72 67
19 22 21 24 27 31 34 38 43 44 46 52 55 59 63 67 71 69 66 67 68 69 71 72 73 74 76 77 76 77 77 74 72 69 66 63 61 60 58 57 58 63 65
22 25 25 29 31 35 39 44 46 49 55 56 61 64 66 74 75 72 69 68 70 69 67 69 73 75 77 76 74 70 68 66 63 60 58 57 56 54 53 53 54 56 58
24 26 27 30 34 38 41 43 46 51 51 58 61 61 72 80 81 76 72 70 69 72 74 72 71 68 66 64 65 60 58 58 56 54 54 52 51 51 50 50 49 49 51
26 25 28 32 36 40 41 42 49 50 55 62 66 70 78 87 81 77 73 72 74 74 72 67 63 60 57 55 57 55 53 52 50 50 48 47 47 47 46 47 45 45 47
Wind_Direction
261 252 248 255 260 258 255 258 250 252 250 257 263 258 262 266 265 259 263 260 257 257 260 265 267 270 266 269 276 272 272 279 278 285 282 270 272 278 283 287 290 281 296
256 250 251 251 255 253 257 253 251 247 254 256 256 256 260 263 264 261 264 270 261 259 262 264 265 271 271 269 277 268 273 274 273 277 284 275 281 277 278 285 284 282 284
259 259 257 256 250 246 252 251 256 257 254 248 256 257 257 258 262 262 260 268 262 260 260 267 265 267 267 272 272 274 278 272 270 272 278 281 283 278 277 285 284 279 281
262 262 260 254 251 251 251 252 253 249 248 248 253 255 257 258 261 259 259 262 257 259 259 262 264 266 269 272 274 277 275 276 275 277 279 282 282 283 279 279 282 286 282
265 263 261 260 260 256 253 253 254 249 244 245 250 254 256 255 252 257 257 256 255 256 262 264 262 261 263 268 270 270 268 272 272 275 280 283 281 280 279 274 276 285 282
268 266 264 262 258 258 260 258 255 252 252 256 260 261 258 254 254 254 254 257 258 262 263 260 256 258 258 260 263 265 266 270 270 273 274 275 276 270 282 271 270 277 279
270 269 267 265 262 260 257 257 258 259 258 257 257 259 259 251 250 252 256 256 256 259 262 262 260 260 261 262 261 261 266 268 267 268 268 268 268 270 272 265 269 274 274
272 268 265 262 261 261 259 258 258 259 259 259 260 261 260 258 253 253 255 256 257 258 260 262 262 262 262 262 261 262 264 262 262 260 259 261 261 262 264 266 260 263 265
272 269 266 264 263 263 263 262 261 260 260 261 262 262 260 259 259 259 260 259 260 260 261 263 263 263 265 266 269 267 267 266 264 264 267 269 265 264 266 264 265 266 267
276 268 268 270 269 269 268 266 264 262 262 264 264 263 263 264 264 262 261 261 264 264 266 266 268 270 270 270 270 269 270 270 270 273 271 273 269 269 267 267 268 268 267
277 275 275 277 278 276 274 274 272 270 268 268 268 268 269 269 269 268 267 267 268 268 268 270 270 270 271 272 273 274 273 274 271 273 275 273 271 271 271 270 269 268 268
281 279 279 278 280 278 277 278 278 279 278 278 278 278 278 277 275 274 273 273 273 273 273 274 274 275 275 276 278 281 282 281 279 276 273 272 270 268 268 267 264 263 263
281 279 277 277 279 281 282 283 284 286 287 288 287 286 285 285 284 283 282 283 283 283 283 282 280 280 282 284 286 287 287 284 281 277 275 273 270 268 266 263 260 258 257
282 282 282 282 282 283 284 287 289 288 292 296 298 297 296 295 293 292 293 295 295 294 291 291 292 293 294 296 297 297 296 294 290 285 281 276 271 267 264 260 255 253 255
285 286 286 286 285 286 287 288 294 302 304 303 301 301 302 301 301 302 302 300 298 297 296 296 296 294 294 294 293 294 298 297 296 293 288 284 280 275 269 265 259 254 255
294 297 295 292 294 295 302 312 313 312 312 312 313 311 307 305 305 304 303 301 300 300 298 296 297 299 299 298 297 297 295 290 290 288 284 281 279 275 272 267 262 259 257
303 296 297 300 303 308 316 321 324 322 317 313 314 314 314 314 314 313 312 311 309 308 307 306 305 304 303 301 301 302 302 302 297 290 283 280 278 272 269 268 264 262 259
313 312 311 315 321 325 327 322 317 314 314 314 317 317 315 313 311 309 310 311 310 308 306 305 303 303 304 305 301 297 296 297 298 297 297 291 283 273 268 267 264 262 259
332 329 325 324 322 317 315 315 318 323 329 330 329 329 325 325 327 324 329 327 320 314 306 302 300 299 298 298 294 292 291 293 295 299 285 287 283 280 275 270 265 263 261
340 335 329 314 311 313 315 321 328 331 330 332 333 334 332 332 334 337 316 308 305 309 311 306 303 301 298 299 298 298 295 291 290 271 261 273 284 282 279 270 267 265 259
334 335 330 319 315 319 326 329 327 329 331 332 332 332 333 332 329 325 312 281 296 298 291 300 301 298 296 295 295 290 293 292 291 289 287 287 285 282 274 271 269 266 262
321 330 327 321 321 318 321 327 329 329 330 333 332 330 330 330 327 322 315 312 308 306 298 292 296 294 294 294 294 293 293 292 290 290 288 284 282 279 276 271 266 265 263
317 324 319 317 320 321 320 322 326 325 327 331 331 332 329 326 324 320 315 310 308 304 301 300 299 299 298 297 296 295 294 293 291 289 287 284 281 280 277 273 268 263 266
313 320 315 319 322 325 327 325 325 325 325 327 329 327 325 327 323 322 317 311 308 305 302 300 300 299 297 296 295 294 293 292 291 289 286 284 283 281 278 274 270 267 265
311 313 318 324 326 326 328 329 329 327 330 331 329 324 328 329 330 324 319 315 311 310 308 306 304 302 300 298 295 295 293 291 290 288 286 284 282 280 279 275 272 269 266
310 313 318 319 322 325 327 330 330 328 324 330 331 326 329 331 329 323 320 316 316 314 311 310 308 306 304 301 297 298 296 293 291 287 285 284 281 279 278 275 273 269 266
Height
10920 10915 10916 10918 10918 10919 10920 10922 10923 10920 10916 10911 10913 10913 10911 10910 10905 10908 10909 10907 10907 10905 10903 10900 10897 10895 10897 10899 10902 10905 10905 10910 10910 10907 10915 10918 10921 10921 10922 10923 10924 10923 10924
10896 10896 10898 10902 10899 10899 10901 10902 10902 10899 10898 10896 10896 10896 10892 10892 10893 10890 10891 10892 10889 10886 10885 10883 10881 10880 10878 10875 10881 10882 10884 10886 10889 10885 10888 10896 10899 10901 10902 10905 10907 10909 10906
10875 10873 10875 10878 10878 10877 10879 10881 10883 10881 10878 10877 10877 10876 10873 10875 10875 10872 10871 10872 10871 10868 10865 10862 10862 10859 10859 10857 10857 10857 10860 10862 10865 10866 10862 10868 10871 10876 10878 10881 10885 10887 10886
10854 10851 10850 10851 10853 10854 10856 10857 10859 10859 10855 10853 10854 10856 10855 10856 10855 10853 10852 10853 10853 10851 10850 10849 10847 10844 10840 10835 10835 10834 10835 10836 10839 10840 10841 10842 10846 10851 10852 10853 10853 10859 10862
10830 10829 10829 10828 10829 10830 10831 10830 10831 10831 10831 10829 10831 10833 10832 10833 10833 10832 10829 10830 10830 10830 10829 10829 10826 10824 10823 10817 10815 10813 10812 10814 10814 10815 10818 10817 10816 10820 10824 10828 10827 10825 10828
10803 10803 10802 10802 10803 10804 10804 10804 10804 10806 10806 10805 10803 10804 10806 10807 10807 10808 10804 10805 10804 10802 10801 10802 10798 10797 10797 10794 10793 10792 10791 10792 10791 10793 10792 10796 10795 10795 10796 10799 10799 10801 10805
10773 10773 10774 10774 10773 10773 10773 10775 10777 10778 10779 10778 10778 10776 10777 10778 10779 10778 10776 10778 10779 10778 10775 10773 10771 10768 10766 10763 10762 10764 10765 10771 10772 10773 10775 10772 10772 10772 10776 10779 10776 10776 10777
10745 10743 10742 10741 10742 10742 10745 10747 10750 10750 10750 10752 10752 10750 10749 10748 10748 10748 10746 10748 10749 10747 10746 10744 10739 10735 10732 10728 10729 10734 10735 10734 10735 10743 10743 10743 10741 10741 10744 10747 10749 10749 10751
10719 10717 10718 10717 10717 10717 10720 10722 10723 10723 10726 10726 10725 10724 10723 10722 10722 10720 10719 10718 10719 10716 10714 10710 10705 10702 10695 10687 10701 10702 10700 10700 10702 10705 10705 10707 10709 10706 10709 10708 10710 10713 10714
10701 10699 10698 10698 10698 10696 10695 10695 10696 10698 10699 10700 10699 10697 10695 10695 10695 10695 10691 10689 10690 10689 10687 10678 10674 10667 10664 10652 10648 10654 10660 10665 10664 10663 10659 10655 10658 10658 10660 10663 10664 10663 10669
10689 10687 10685 10683 10681 10680 10679 10677 10675 10675 10675 10677 10676 10673 10672 10670 10669 10668 10665 10662 10659 10657 10655 10651 10644 10638 10631 10622 10613 10616 10618 10618 10616 10617 10604 10597 10597 10599 10601 10606 10607 10611 10616
10677 10674 10671 10670 10668 10666 10666 10664 10662 10661 10659 10657 10654 10652 10649 10645 10641 10639 10637 10633 10630 10628 10626 10622 10619 10612 10607 10600 10589 10580 10576 10573 10571 10565 10559 10556 10556 10558 10561 10565 10569 10573 10578
10665 10663 10661 10660 10658 10656 10654 10653 10651 10648 10645 10641 10636 10633 10629 10625 10620 10618 10615 10612 10609 10605 10602 10599 10593 10588 10579 10572 10567 10561 10552 10546 10540 10536 10533 10532 10532 10532 10534 10538 10541 10546 10552
10656 10654 10652 10650 10648 10647 10645 10643 10641 10638 10634 10630 10627 10624 10621 10618 10614 10609 10605 10601 10597 10592 10587 10581 10575 10570 10564 10557 10551 10544 10537 10531 10525 10522 10517 10515 10515 10515 10517 10520 10523 10527 10531
10646 10644 10642 10640 10638 10637 10637 10635 10633 10629 10626 10623 10621 10618 10614 10611 10607 10602 10597 10592 10587 10582 10575 10569 10562 10557 10552 10548 10542 10535 10529 10524 10518 10513 10509 10506 10505 10505 10505 10506 10507 10510 10513
10638 10636 10634 10633 10633 10632 10630 10627 10625 10624 10621 10618 10614 10610 10606 10602 10598 10594 10589 10582 10576 10568 10561 10555 10548 10542 10537 10532 10527 10522 10519 10515 10509 10505 10502 10498 10495 10493 10492 10493 10494 10495 10497
10635 10634 10632 10630 10628 10626 10625 10623 10622 10620 10616 10612 10608 10602 10596 10589 10584 10578 10572 10566 10560 10554 10548 10541 10534 10528 10522 10517 10512 10507 10501 10496 10494 10493 10490 10487 10484 10481 10479 10477 10478 10479 10479
10633 10631 10629 10626 10624 10622 10621 10619 10617 10613 10609 10605 10601 10595 10589 10583 10576 10570 10563 10556 10549 10542 10535 10529 10522 10515 10508 10503 10499 10494 10490 10485 10480 10476 10473 10469 10466 10465 10463 10460 10459 10461 10463
10630 10627 10624 10622 10620 10619 10616 10613 10610 10605 10600 10595 10590 10585 10580 10573 10565 10554 10547 10540 10535 10528 10520 10514 10507 10501 10495 10490 10483 10479 10474 10471 10471 10467 10453 10452 10448 10443 10441 10439 10440 10439 10440
10626 10624 10621 10619 10616 10614 10611 10607 10602 10597 10592 10587 10580 10574 10566 10559 10553 10546 10542 10531 10520 10515 10505 10497 10488 10481 10475 10470 10463 10458 10452 10450 10449 10449 10442 10433 10423 10418 10413 10412 10413 10414 10416
10623 10620 10617 10614 10611 10608 10604 10600 10596 10590 10584 10576 10570 10563 10555 10548 10541 10536 10535 10526 10512 10498 10489 10477 10471 10462 10454 10447 10440 10435 10429 10424 10420 10416 10410 10404 10396 10390 10385 10383 10381 10384 10387
10618 10615 10612 10609 10606 10602 10598 10594 10589 10583 10575 10567 10559 10553 10546 10535 10527 10519 10509 10500 10491 10481 10473 10462 10451 10442 10432 10424 10417 10409 10402 10396 10391 10386 10380 10372 10365 10360 10357 10355 10353 10353 10357
10613 10610 10608 10605 10601 10596 10592 10586 10579 10572 10564 10557 10547 10539 10529 10521 10510 10500 10489 10479 10468 10458 10446 10436 10426 10416 10406 10397 10390 10382 10374 10366 10359 10353 10348 10342 10338 10334 10332 10330 10329 10330 10331
10608 10604 10601 10598 10594 10589 10583 10577 10569 10562 10555 10546 10537 10527 10517 10507 10494 10481 10469 10457 10446 10434 10423 10413 10402 10392 10381 10370 10361 10353 10345 10338 10332 10326 10322 10318 10315 10312 10309 10307 10307 10308 10309
10603 10599 10595 10591 10587 10581 10575 10568 10560 10552 10544 10536 10527 10516 10504 10490 10475 10460 10447 10433 10422 10410 10397 10386 10374 10365 10355 10346 10332 10329 10322 10316 10310 10305 10300 10297 10295 10292 10291 10288 10288 10289 10289
10596 10593 10589 10585 10579 10573 10566 10559 10552 10545 10536 10525 10513 10500 10486 10472 10456 10441 10424 10412 10400 10387 10372 10361 10350 10340 10332 10324 10312 10307 10300 10294 10290 10285 10282 10279 10277 10274 10272 10269 10270 10270 10271